This is the latest recevied weather packets stored in our database for station/object HG8PDN-11. If no packets are shown the sender has not sent any weather packets the latest 10 day(s).
| Time | Temp. | Humidity | Pressure | Rain* | Wind** | Luminosity | Snow |
|---|---|---|---|---|---|---|---|
| 1777745628 | 27.78° C | 16% | 1019.3 hPa | - | - | - | - |
| 1777744762 | 27.78° C | 15% | 1019.2 hPa | - | - | - | - |
| 1777744728 | 27.78° C | 15% | 1019.2 hPa | - | - | - | - |
| 1777743828 | 28.33° C | 15% | 1019.1 hPa | - | - | - | - |
| 1777742995 | 28.33° C | 16% | 1019.1 hPa | - | - | - | - |
| 1777742962 | 28.33° C | 16% | 1019.1 hPa | - | - | - | - |
| 1777742928 | 28.33° C | 16% | 1019.1 hPa | - | - | - | - |
| 1777742028 | 28.33° C | 15% | 1019.1 hPa | - | - | - | - |
| 1777741159 | 28.89° C | 15% | 1019.2 hPa | - | - | - | - |
| 1777741127 | 28.89° C | 15% | 1019.2 hPa | - | - | - | - |
| 1777740259 | 28.89° C | 15% | 1019.1 hPa | - | - | - | - |
| 1777740226 | 28.89° C | 15% | 1019.1 hPa | - | - | - | - |
| 1777739325 | 29.44° C | 13% | 1019.1 hPa | - | - | - | - |
| 1777738425 | 30° C | 14% | 1019.3 hPa | - | - | - | - |
| 1777737524 | 30.56° C | 13% | 1019.5 hPa | - | - | - | - |
| 1777736623 | 30° C | 14% | 1019.5 hPa | - | - | - | - |
| 1777735723 | 30° C | 14% | 1019.6 hPa | - | - | - | - |
| 1777734822 | 30° C | 14% | 1019.8 hPa | - | - | - | - |
| 1777733956 | 30° C | 14% | 1019.8 hPa | - | - | - | - |
| 1777733922 | 30° C | 14% | 1019.8 hPa | - | - | - | - |
| 1777733022 | 30° C | 14% | 1020 hPa | - | - | - | - |
| 1777732121 | 29.44° C | 15% | 1020.1 hPa | - | - | - | - |
| 1777731252 | 30° C | 14% | 1020.1 hPa | - | - | - | - |
| 1777731221 | 30° C | 14% | 1020.1 hPa | - | - | - | - |
| 1777730358 | 30° C | 14% | 1020.1 hPa | - | - | - | - |
* Rain since midnight (hover to see other rain measurements)
** Current wind speed in m/s (hover to see current wind gust speed)